FW2739 Weather Reports


time (UTC)temp
C
wind
direction
speed
KPH
gust
KPH
rain 1hr
cm
rain 24hr
cm
rain mn
cm
humidity
%
barometer
mb
20200124011534 1 348 0.0 0.0 0.00 0.30 0.30 51 1025.0
20200124010038 1 348 0.0 0.0 0.00 0.30 0.30 51 1025.1
20200124004508 1 348 0.0 1.6 0.00 0.30 0.30 51 1024.9
20200124003021 1 348 0.0 1.6 0.00 0.30 0.30 49 1025.1
20200124001553 1 348 0.0 0.0 0.00 0.30 0.30 50 1025.2
20200124000034 1 348 0.0 0.0 0.00 0.30 0.30 51 1025.1
20200123234506 1 348 0.0 1.6 0.00 0.30 0.30 51 1024.9
20200123233008 1 348 0.0 3.2 0.00 0.30 0.30 51 1024.9
20200123231514 1 348 0.0 0.0 0.03 0.30 0.30 48 1025.0
20200123230019 2 348 0.0 0.0 0.03 0.30 0.30 46 1025.1
20200123224505 2 348 0.0 0.0 0.03 0.30 0.30 46 1025.2
20200123223003 2 348 0.0 0.0 0.03 0.30 0.30 44 1025.0
20200123221502 3 348 0.0 1.6 0.03 0.28 0.28 43 1024.9
20200123220353 3 348 0.0 0.0 0.03 0.28 0.28 42 1024.8
20200123214705 3 348 0.0 0.0 0.03 0.30 0.28 41 1024.5
20200123213223 4 348 0.0 0.0 0.05 0.30 0.28 39 1024.5
20200123211711 4 348 0.0 1.6 0.03 0.28 0.25 39 1024.3
20200123210245 4 348 0.0 0.0 0.05 0.28 0.25 39 1024.6
20200123204753 5 348 0.0 1.6 0.05 0.30 0.25 38 1024.5
20200123203226 5 348 0.0 1.6 0.05 0.28 0.23 37 1024.5
20200123201622 5 347 0.0 1.6 0.08 0.28 0.23 36 1024.7
20200123200142 5 347 0.0 1.6 0.05 0.25 0.20 37 1024.8
20200123194732 5 346 0.0 1.6 0.08 0.28 0.20 34 1024.7
20200123193210 5 346 0.0 0.0 0.05 0.25 0.18 34 1024.7
20200123191717 5 346 0.0 3.2 0.05 0.23 0.15 40 1024.8
20200123190123 4 102 0.0 4.8 0.05 0.23 0.15 39 1025.0
20200123184607 4 223 0.0 3.2 0.05 0.25 0.13 35 1025.1
20200123183207 3 223 0.0 1.6 0.08 0.25 0.13 38 1024.9
20200123181608 3 223 0.0 1.6 0.05 0.23 0.10 37 1025.1
20200123180133 3 223 0.0 1.6 0.08 0.23 0.10 37 1025.2
20200123174728 4 269 0.0 3.2 0.08 0.23 0.08 40 1025.4
20200123173145 4 269 0.0 1.6 0.05 0.20 0.05 38 1025.4
20200123171654 3 171 0.0 1.6 0.05 0.20 0.05 37 1025.5
20200123170127 3 171 0.0 1.6 0.03 0.18 0.03 38 1025.9
20200123164702 2 171 0.0 0.0 0.00 0.15 0.00 38 1026.1
20200123163157 2 171 0.0 1.6 0.00 0.15 0.00 41 1026.3
20200123161540 1 171 0.0 3.2 0.00 0.15 0.00 41 1026.8
20200123160026 1 171 0.0 0.0 0.00 0.15 0.00 41 1026.7
20200123154518 0 171 0.0 0.0 0.00 0.15 0.00 46 1026.7
20200123153010 0 171 0.0 1.6 0.00 0.15 0.00 46 1026.9
20200123151515 -1 171 0.0 1.6 0.00 0.15 0.00 48 1027.0
20200123144648 -2 171 0.0 3.2 0.00 0.15 0.00 53 1026.8
20200123143153 -3 171 0.0 0.0 0.00 0.15 0.00 56 1027.0
20200123141639 -3 171 0.0 0.0 0.00 0.15 0.00 57 1027.0
20200123140151 -4 171 0.0 0.0 0.00 0.15 0.00 59 1026.9
20200123134636 -5 171 0.0 0.0 0.00 0.15 0.00 60 1026.8
20200123133125 -5 171 0.0 0.0 0.00 0.15 0.00 62 1027.0
20200123131614 -5 171 0.0 1.6 0.00 0.15 0.00 62 1027.1
20200123130201 -5 171 0.0 0.0 0.00 0.15 0.00 61 1027.0
20200123124609 -5 171 0.0 1.6 0.00 0.15 0.00 61 1027.0
20200123123050 -5 171 0.0 1.6 0.00 0.15 0.00 61 1026.9
20200123121615 -5 171 0.0 1.6 0.00 0.15 0.00 61 1027.0
20200123120043 -5 171 0.0 1.6 0.00 0.15 0.00 61 1027.1
20200123114629 -5 171 0.0 1.6 0.00 0.15 0.00 62 1027.1
20200123113052 -5 171 0.0 1.6 0.00 0.15 0.00 62 1026.9
20200123111552 -5 171 0.0 0.0 0.00 0.15 0.00 61 1026.9
20200123110139 -5 171 0.0 3.2 0.00 0.15 0.00 61 1026.7
20200123104534 -5 171 0.0 3.2 0.00 0.15 0.00 62 1026.7
20200123103039 -6 171 0.0 3.2 0.00 0.15 0.00 63 1026.7
20200123101520 -6 171 0.0 1.6 0.00 0.15 0.00 62 1026.7
20200123100057 -6 171 0.0 0.0 0.00 0.15 0.00 63 1026.8
20200123094545 -6 171 0.0 0.0 0.00 0.15 0.00 61 1026.9
20200123093021 -6 171 0.0 0.0 0.00 0.15 0.00 61 1026.7
20200123091604 -6 171 0.0 1.6 0.00 0.15 0.00 60 1027.1
20200123090031 -6 171 0.0 0.0 0.00 0.15 0.00 60 1027.3
20200123084643 -7 171 0.0 3.2 0.00 0.15 0.00 61 1027.1
20200123083012 -7 171 0.0 0.0 0.00 0.15 0.00 61 1027.3
20200123081520 -7 171 0.0 1.6 0.00 0.15 0.00 61 1027.5
20200123080030 -7 171 0.0 1.6 0.00 0.15 0.00 61 1027.5
20200123074510 -7 171 0.0 1.6 0.00 0.15 0.00 61 1027.6
20200123073008 -6 171 0.0 0.0 0.00 0.15 0.00 60 1027.5
20200123071514 -6 171 0.0 0.0 0.00 0.15 0.00 58 1027.7
20200123070009 -6 171 0.0 0.0 0.00 0.15 0.00 57 1028.0
20200123064505 -5 171 0.0 1.6 0.00 0.15 0.00 56 1027.8
20200123063035 -5 171 0.0 1.6 0.00 0.15 0.00 56 1028.0
20200123061503 -5 171 0.0 1.6 0.00 0.15 0.00 57 1027.9
20200123060008 -5 171 0.0 0.0 0.00 0.15 0.00 57 1027.9
20200123054750 -5 171 0.0 0.0 0.00 0.15 0.00 58 1028.2
20200123053241 -6 171 0.0 1.6 0.00 0.15 0.00 60 1028.1
20200123051635 -6 171 0.0 0.0 0.00 0.15 0.00 63 1028.2
20200123050204 -7 171 0.0 1.6 0.00 0.15 0.00 63 1028.5
20200123044629 -7 171 0.0 1.6 0.00 0.15 0.15 62 1028.5
20200123043227 -7 171 0.0 1.6 0.00 0.15 0.15 61 1028.8
20200123041626 -7 171 0.0 1.6 0.00 0.15 0.15 61 1028.9
20200123040116 -7 171 0.0 1.6 0.00 0.15 0.15 59 1029.0
20200123034641 -6 171 0.0 1.6 0.00 0.15 0.15 58 1029.0
20200123033126 -6 171 0.0 1.6 0.00 0.15 0.15 57 1028.9
20200123031537 -6 171 0.0 3.2 0.00 0.15 0.15 56 1028.8
20200123030109 -5 171 0.0 3.2 0.00 0.15 0.15 57 1029.0
20200123024515 -5 171 0.0 0.0 0.00 0.15 0.15 57 1029.2
20200123023005 -5 171 0.0 0.0 0.00 0.15 0.15 56 1029.3
20200123021505 -5 171 0.0 0.0 0.00 0.15 0.15 55 1029.4
20200123020348 -4 171 0.0 1.6 0.00 0.15 0.15 54 1029.5
20200123014717 -4 171 0.0 0.0 0.00 0.15 0.15 55 1029.7
20200123013221 -4 171 0.0 3.2 0.00 0.15 0.15 54 1029.7